Lincoln, NE

2:20 AM CST on December 13, 2017 (GMT -0600)
Lincoln Municipal

Weather History for KLNK - January, 1999

Change the Weather History Date:

Sunday, January 3, 1999

  Actual Average Record
Temperature  
Mean Temperature 2 °F 24 °F  
Max Temperature 5 °F 35 °F 63 °F (1909)
Min Temperature -2 °F 14 °F -17 °F (1887)
Degree Days  
Heating Degree Days 64 40  
Month to date heating degree days 120  
Since 1 July heating degree days 2565  
Cooling Degree Days 0 0  
Month to date cooling degree days 0  
Year to date cooling degree days 0  
Moisture  
Dew Point -4 °F    
Average Humidity 73    
Maximum Humidity 85    
Minimum Humidity 61    
Precipitation  
Precipitation 0.00 in 0.02 in 1.40 in (1949)
Month to date precipitation 0.06  
Year to date precipitation 0.06  
Snow  
Snow 0.00 in 0.20 in - ()
Month to date snowfall 0.5  
Since 1 July snowfall 9.2  
Snow Depth 5.00 in    
Sea Level Pressure  
Sea Level Pressure 30.35 in    
Wind  
Wind Speed 19 mph (NW)    
Max Wind Speed 26 mph    
Max Gust Speed 31 mph    
Visibility 8 miles    
Events Snow    
T = Trace of Precipitation, MM = Missing Value Source: NWS Daily Summary

Daily Weather History Graph

Daily Weather History Graph

Search for Another Location

Airport or City:

Trip Planner

Search our weather history database for the weather conditions in past years. The results will help you decide how hot, cold, wet, or windy it might be!

Date:

Astronomy

Jan. 03, 1999 Rise Set
Actual Time 7:51 AM CST 5:11 PM CST
Civil Twilight 7:20 AM CST 5:42 PM CST
Nautical Twilight 6:46 AM CST 6:16 PM CST
Astronomical Twilight 6:13 AM CST 6:49 PM CST
Moon 7:15 PM CST (1/3) 8:57 AM CST (1/3)
Length of Visible Light 10h 21m
Length of Day
9h 19m
Waning Gibbous, 97% of the Moon is Illuminated
Jan 3
Waning Gibbous
Jan 9
Last Quarter
Jan 17
New
Jan 24
First Quarter
Jan 31
Full

Hourly Weather History & Observations

Time (CST) Temp. Windchill Dew Point Humidity Pressure Visibility Wind Dir Wind Speed Gust Speed Precip Events Conditions
12:54 AM 3.9 °F -17.6 °F -0.9 °F 80% 30.28 in 6.0 mi NW 21.9 mph 28.8 mph 0.00 in Snow Light Snow
1:54 AM 3.9 °F -17.6 °F -0.9 °F 80% 30.28 in 2.0 mi NW 21.9 mph - 0.00 in Snow Light Snow
2:02 AM 3.2 °F -18.6 °F -0.4 °F 85% 30.20 in 1.8 mi NW 21.9 mph 31.1 mph 0.00 in Snow Light Snow
2:11 AM 3.2 °F -20.3 °F -0.4 °F 85% 30.21 in 2.0 mi NNW 26.5 mph 31.1 mph 0.00 in Snow Light Snow
2:28 AM 3.2 °F -18.6 °F -0.4 °F 85% 30.21 in 3.0 mi NW 21.9 mph 29.9 mph 0.00 in Snow Light Snow
2:41 AM 3.2 °F -17.6 °F -2.2 °F 78% 30.21 in 3.0 mi NW 19.6 mph 27.6 mph 0.00 in Snow Light Snow
2:54 AM 3.0 °F -18.8 °F -2.0 °F 80% 30.30 in 3.0 mi NW 21.9 mph 26.5 mph 0.00 in Snow Light Snow
3:17 AM 3.2 °F -18.6 °F -2.2 °F 78% 30.22 in 6.0 mi NW 21.9 mph - 0.00 in Snow Light Snow
3:54 AM 3.0 °F -16.7 °F -2.0 °F 80% 30.31 in 9.0 mi NW 17.3 mph 26.5 mph 0.00 in Snow Light Snow
4:54 AM 1.0 °F -19.9 °F -5.1 °F 75% 30.33 in 5.0 mi NW 18.4 mph 28.8 mph 0.00 in Snow Light Snow
5:21 AM -0.4 °F -22.3 °F -5.8 °F 78% 30.24 in 4.0 mi NW 19.6 mph 29.9 mph 0.00 in Snow Light Snow
5:54 AM -0.9 °F -23.0 °F -7.1 °F 75% 30.34 in 7.0 mi NW 19.6 mph 28.8 mph 0.00 in Snow Light Snow
6:54 AM -0.9 °F -21.9 °F -8.0 °F 72% 30.36 in 9.0 mi NW 17.3 mph - 0.00 in   Clear
7:54 AM -2.0 °F -19.6 °F -9.9 °F 69% 30.39 in 10.0 mi WNW 11.5 mph - N/A   Clear
8:54 AM -2.0 °F -22.6 °F -9.9 °F 69% 30.39 in 10.0 mi NW 16.1 mph - N/A   Clear
9:54 AM -0.9 °F -21.2 °F -9.9 °F 66% 30.41 in 10.0 mi NW 16.1 mph - N/A   Clear
10:54 AM 1.0 °F -18.7 °F -8.0 °F 66% 30.42 in 10.0 mi NW 16.1 mph - N/A   Clear
11:54 AM 1.9 °F -19.2 °F -7.1 °F 66% 30.42 in 10.0 mi NW 19.6 mph - N/A   Scattered Clouds
12:54 PM 3.0 °F -15.5 °F -6.0 °F 66% 30.40 in 10.0 mi NW 15.0 mph 24.2 mph N/A   Mostly Cloudy
1:10 PM 3.2 °F -17.1 °F -5.8 °F 66% 30.31 in 10.0 mi WNW 18.4 mph - N/A   Mostly Cloudy
1:54 PM 3.9 °F -16.6 °F -5.1 °F 66% 30.39 in 10.0 mi NW 19.6 mph 24.2 mph N/A   Mostly Cloudy
2:54 PM 5.0 °F -14.7 °F -5.1 °F 63% 30.40 in 10.0 mi NW 18.4 mph - N/A   Overcast
3:43 PM 5.0 °F -14.2 °F -5.8 °F 61% 30.32 in 10.0 mi NW 17.3 mph - N/A   Partly Cloudy
3:54 PM 5.0 °F -12.3 °F -4.0 °F 66% 30.41 in 10.0 mi NW 13.8 mph - N/A   Scattered Clouds
4:02 PM 5.0 °F -15.2 °F -5.8 °F 61% 30.32 in 10.0 mi NW 19.6 mph 25.3 mph N/A   Mostly Cloudy
4:43 PM 5.0 °F -15.2 °F -4.0 °F 66% 30.32 in 10.0 mi NW 19.6 mph - N/A   Scattered Clouds
4:54 PM 3.9 °F -14.3 °F -2.9 °F 73% 30.41 in 10.0 mi NW 15.0 mph - N/A   Mostly Cloudy
5:02 PM 3.2 °F -16.5 °F -2.2 °F 78% 30.32 in 10.0 mi NW 17.3 mph - N/A   Mostly Cloudy
5:16 PM 3.2 °F -16.5 °F -4.0 °F 72% 30.32 in 10.0 mi NW 17.3 mph - N/A   Scattered Clouds
5:54 PM 3.9 °F -13.0 °F -2.9 °F 73% 30.43 in 10.0 mi NW 12.7 mph - N/A   Clear
6:21 PM 3.2 °F -13.1 °F -2.2 °F 78% 30.34 in 10.0 mi NW 11.5 mph - N/A   Mostly Cloudy
6:42 PM 3.2 °F -15.9 °F -2.2 °F 78% 30.34 in 10.0 mi NW 16.1 mph - N/A   Scattered Clouds
6:54 PM 3.9 °F -13.7 °F -4.0 °F 70% 30.43 in 10.0 mi NW 13.8 mph - N/A   Partly Cloudy
7:54 PM 3.9 °F -13.7 °F -2.9 °F 73% 30.43 in 10.0 mi NW 13.8 mph - N/A   Clear
8:54 PM 3.9 °F -10.4 °F -2.9 °F 73% 30.44 in 10.0 mi NW 9.2 mph - N/A   Clear
9:54 PM 3.0 °F -12.5 °F -5.1 °F 69% 30.45 in 10.0 mi NW 10.4 mph - N/A   Clear
10:54 PM 1.9 °F -12.9 °F -6.0 °F 69% 30.46 in 10.0 mi WNW 9.2 mph - N/A   Clear
11:54 PM 1.0 °F -14.9 °F -6.0 °F 72% 30.48 in 10.0 mi WNW 10.4 mph - N/A   Clear